| time (UTC) | temp F | wind direction | speed MPH | gust MPH | rain 1hr in | rain 24hr in | rain mn in | humidity % | barometer mb |
| 20260505124814 | 76 | 90 | 5.0 | 6.0 | 0.00 | 0.00 | 0.00 | 82 | 1022.0 |
| 20260505124313 | 76 | 68 | 8.0 | 10.0 | 0.00 | 0.00 | 0.00 | 82 | 1022.0 |
| 20260505123814 | 76 | 23 | 7.0 | 8.0 | 0.00 | 0.00 | 0.00 | 82 | 1022.0 |
| 20260505123314 | 77 | 23 | 4.0 | 5.0 | 0.00 | 0.00 | 0.00 | 82 | 1022.0 |
| 20260505122813 | 76 | 23 | 4.0 | 5.0 | 0.00 | 0.00 | 0.00 | 82 | 1022.0 |
| 20260505122313 | 77 | 45 | 3.0 | 4.0 | 0.00 | 0.00 | 0.00 | 81 | 1022.0 |
| 20260505121813 | 77 | 90 | 4.0 | 5.0 | 0.00 | 0.00 | 0.00 | 81 | 1022.0 |
| 20260505121313 | 77 | 68 | 4.0 | 5.0 | 0.00 | 0.00 | 0.00 | 81 | 1022.0 |
| 20260505120814 | 77 | 68 | 4.0 | 6.0 | 0.00 | 0.00 | 0.00 | 82 | 1022.0 |
| 20260505120314 | 76 | 45 | 4.0 | 5.0 | 0.00 | 0.00 | 0.00 | 82 | 1022.0 |
| 20260505115813 | 77 | 45 | 4.0 | 5.0 | 0.00 | 0.00 | 0.00 | 82 | 1022.0 |
| 20260505115313 | 76 | 68 | 7.0 | 9.0 | 0.00 | 0.00 | 0.00 | 82 | 1022.0 |
| 20260505114813 | 76 | 90 | 5.0 | 6.0 | 0.00 | 0.00 | 0.00 | 83 | 1022.0 |
| 20260505114313 | 76 | 90 | 6.0 | 7.0 | 0.00 | 0.00 | 0.00 | 84 | 1021.0 |
| 20260505113813 | 75 | 315 | 3.0 | 4.0 | 0.00 | 0.00 | 0.00 | 84 | 1021.0 |
| 20260505113314 | 75 | 45 | 5.0 | 7.0 | 0.00 | 0.00 | 0.00 | 84 | 1021.0 |
| 20260505112813 | 75 | 0 | 7.0 | 8.0 | 0.00 | 0.00 | 0.00 | 85 | 1021.0 |
| 20260505112313 | 75 | 23 | 6.0 | 9.0 | 0.00 | 0.00 | 0.00 | 85 | 1021.0 |
| 20260505111814 | 75 | 45 | 4.0 | 5.0 | 0.00 | 0.00 | 0.00 | 85 | 1022.0 |
| 20260505111317 | 75 | 113 | 3.0 | 3.0 | 0.00 | 0.00 | 0.00 | 85 | 1021.0 |
| 20260505110815 | 75 | 68 | 5.0 | 7.0 | 0.00 | 0.00 | 0.00 | 85 | 1021.0 |
| 20260505110313 | 75 | 23 | 7.0 | 10.0 | 0.00 | 0.00 | 0.00 | 85 | 1022.0 |
| 20260505101813 | 74 | 90 | 3.0 | 5.0 | 0.00 | 0.00 | 0.00 | 85 | 1021.0 |
| 20260505101314 | 74 | 45 | 5.0 | 6.0 | 0.00 | 0.00 | 0.00 | 85 | 1021.0 |
| 20260505100813 | 74 | 23 | 4.0 | 5.0 | 0.00 | 0.00 | 0.00 | 85 | 1021.0 |
| 20260505100317 | 74 | 45 | 5.0 | 7.0 | 0.00 | 0.00 | 0.00 | 85 | 1021.0 |
| 20260505095813 | 74 | 0 | 4.0 | 5.0 | 0.00 | 0.00 | 0.00 | 84 | 1021.0 |
| 20260505095314 | 74 | 68 | 2.0 | 3.0 | 0.00 | 0.00 | 0.00 | 84 | 1020.0 |
| 20260505094813 | 74 | 45 | 3.0 | 4.0 | 0.00 | 0.00 | 0.00 | 84 | 1021.0 |
| 20260505094314 | 74 | 113 | 3.0 | 5.0 | 0.00 | 0.00 | 0.00 | 84 | 1021.0 |
| 20260505093814 | 74 | 68 | 3.0 | 4.0 | 0.00 | 0.00 | 0.00 | 84 | 1020.0 |
| 20260505093314 | 74 | 68 | 2.0 | 2.0 | 0.00 | 0.00 | 0.00 | 84 | 1020.0 |
| 20260505092814 | 74 | 90 | 6.0 | 7.0 | 0.00 | 0.00 | 0.00 | 84 | 1020.0 |
| 20260505092314 | 74 | 45 | 3.0 | 5.0 | 0.00 | 0.00 | 0.00 | 85 | 1021.0 |
| 20260505091813 | 74 | 45 | 4.0 | 7.0 | 0.00 | 0.00 | 0.00 | 85 | 1020.0 |
| 20260505091313 | 74 | 68 | 1.0 | 2.0 | 0.00 | 0.00 | 0.00 | 84 | 1020.0 |
| 20260505090813 | 74 | 68 | 5.0 | 7.0 | 0.00 | 0.00 | 0.00 | 84 | 1020.0 |
| 20260505090313 | 74 | 23 | 5.0 | 7.0 | 0.00 | 0.00 | 0.00 | 84 | 1020.0 |
| 20260505085813 | 74 | 23 | 3.0 | 5.0 | 0.00 | 0.00 | 0.00 | 84 | 1020.0 |
| 20260505085314 | 74 | 45 | 7.0 | 10.0 | 0.00 | 0.00 | 0.00 | 84 | 1020.0 |
| 20260505084813 | 74 | 338 | 2.0 | 3.0 | 0.00 | 0.00 | 0.00 | 84 | 1020.0 |
| 20260505084313 | 74 | 68 | 3.0 | 4.0 | 0.00 | 0.00 | 0.00 | 84 | 1020.0 |
| 20260505083814 | 74 | 45 | 3.0 | 3.0 | 0.00 | 0.00 | 0.00 | 84 | 1020.0 |
| 20260505083314 | 74 | 23 | 7.0 | 9.0 | 0.00 | 0.00 | 0.00 | 84 | 1020.0 |
| 20260505082813 | 74 | 23 | 4.0 | 6.0 | 0.00 | 0.00 | 0.00 | 84 | 1020.0 |
| 20260505082313 | 74 | 45 | 4.0 | 5.0 | 0.00 | 0.00 | 0.00 | 84 | 1020.0 |
| 20260505081813 | 74 | 68 | 4.0 | 7.0 | 0.00 | 0.00 | 0.00 | 84 | 1020.0 |
| 20260505081313 | 74 | 68 | 3.0 | 5.0 | 0.00 | 0.00 | 0.00 | 84 | 1020.0 |
| 20260505080813 | 74 | 23 | 2.0 | 2.0 | 0.00 | 0.00 | 0.00 | 83 | 1020.0 |
| 20260505080314 | 74 | 45 | 3.0 | 5.0 | 0.00 | 0.00 | 0.00 | 83 | 1020.0 |
| 20260505075813 | 74 | 45 | 3.0 | 5.0 | 0.00 | 0.00 | 0.00 | 83 | 1020.0 |
| 20260505075313 | 74 | 23 | 3.0 | 5.0 | 0.00 | 0.00 | 0.00 | 83 | 1020.0 |
| 20260505074814 | 74 | 68 | 2.0 | 3.0 | 0.00 | 0.00 | 0.00 | 82 | 1020.0 |
| 20260505074314 | 74 | 68 | 3.0 | 5.0 | 0.00 | 0.00 | 0.00 | 82 | 1020.0 |
| 20260505073814 | 74 | 68 | 3.0 | 4.0 | 0.00 | 0.00 | 0.00 | 82 | 1020.0 |
| 20260505073313 | 74 | 45 | 4.0 | 5.0 | 0.00 | 0.00 | 0.00 | 82 | 1020.0 |
| 20260505072813 | 74 | 68 | 3.0 | 4.0 | 0.00 | 0.00 | 0.00 | 82 | 1021.0 |
| 20260505072313 | 74 | 68 | 3.0 | 4.0 | 0.00 | 0.00 | 0.00 | 82 | 1020.0 |
| 20260505071814 | 74 | 68 | 6.0 | 7.0 | 0.00 | 0.00 | 0.00 | 81 | 1020.0 |
| 20260505071313 | 74 | 45 | 4.0 | 5.0 | 0.00 | 0.00 | 0.00 | 81 | 1021.0 |
| 20260505070814 | 74 | 45 | 8.0 | 9.0 | 0.00 | 0.00 | 0.00 | 81 | 1020.0 |
| 20260505070313 | 74 | 68 | 3.0 | 3.0 | 0.00 | 0.00 | 0.00 | 81 | 1021.0 |
| 20260505065813 | 74 | 68 | 4.0 | 5.0 | 0.00 | 0.00 | 0.00 | 81 | 1021.0 |
| 20260505065314 | 74 | 90 | 7.0 | 8.0 | 0.00 | 0.00 | 0.00 | 81 | 1021.0 |
| 20260505064813 | 74 | 68 | 4.0 | 5.0 | 0.00 | 0.00 | 0.00 | 81 | 1021.0 |
| 20260505064313 | 74 | 45 | 3.0 | 4.0 | 0.00 | 0.00 | 0.00 | 81 | 1021.0 |
| 20260505063813 | 74 | 45 | 5.0 | 6.0 | 0.00 | 0.00 | 0.00 | 81 | 1021.0 |
| 20260505063313 | 73 | 0 | 5.0 | 7.0 | 0.00 | 0.00 | 0.00 | 82 | 1021.0 |
| 20260505062813 | 73 | 90 | 4.0 | 5.0 | 0.00 | 0.00 | 0.00 | 82 | 1021.0 |
| 20260505062313 | 73 | 45 | 4.0 | 5.0 | 0.00 | 0.00 | 0.00 | 82 | 1021.0 |
| 20260505061813 | 73 | 68 | 2.0 | 2.0 | 0.00 | 0.00 | 0.00 | 82 | 1021.0 |
| 20260505061313 | 74 | 113 | 6.0 | 8.0 | 0.00 | 0.00 | 0.00 | 82 | 1021.0 |
| 20260505060814 | 74 | 68 | 5.0 | 7.0 | 0.00 | 0.00 | 0.00 | 82 | 1021.0 |
| 20260505060313 | 74 | 68 | 3.0 | 5.0 | 0.00 | 0.00 | 0.00 | 82 | 1021.0 |
| 20260505055813 | 74 | 23 | 3.0 | 5.0 | 0.00 | 0.00 | 0.00 | 81 | 1021.0 |
| 20260505055313 | 74 | 68 | 3.0 | 5.0 | 0.00 | 0.00 | 0.00 | 81 | 1022.0 |
| 20260505054813 | 74 | 68 | 6.0 | 7.0 | 0.00 | 0.00 | 0.00 | 81 | 1021.0 |
| 20260505054313 | 74 | 113 | 3.0 | 4.0 | 0.00 | 0.00 | 0.00 | 81 | 1021.0 |
| 20260505053814 | 74 | 113 | 6.0 | 9.0 | 0.00 | 0.00 | 0.00 | 81 | 1021.0 |
| 20260505053314 | 74 | 158 | 3.0 | 4.0 | 0.00 | 0.00 | 0.00 | 81 | 1021.0 |
| 20260505052815 | 74 | 68 | 4.0 | 5.0 | 0.00 | 0.00 | 0.00 | 81 | 1022.0 |
| 20260505052313 | 74 | 23 | 3.0 | 4.0 | 0.00 | 0.00 | 0.00 | 81 | 1022.0 |
| 20260505051813 | 74 | 338 | 5.0 | 7.0 | 0.00 | 0.00 | 0.00 | 81 | 1022.0 |
| 20260505051313 | 74 | 135 | 2.0 | 2.0 | 0.00 | 0.00 | 0.00 | 81 | 1022.0 |
| 20260505050813 | 74 | 0 | 5.0 | 6.0 | 0.00 | 0.00 | 0.00 | 80 | 1022.0 |
| 20260505050313 | 74 | 68 | 4.0 | 5.0 | 0.00 | 0.00 | 0.00 | 80 | 1022.0 |
| 20260505041314 | 74 | 293 | 4.0 | 5.0 | 0.00 | 0.00 | 0.00 | 80 | 1022.0 |
| 20260505040814 | 74 | 90 | 4.0 | 5.0 | 0.00 | 0.00 | 0.00 | 80 | 1022.0 |
| 20260505040314 | 74 | 0 | 5.0 | 7.0 | 0.00 | 0.00 | 0.00 | 80 | 1022.0 |
| 20260505035813 | 74 | 90 | 3.0 | 6.0 | 0.00 | 0.00 | 0.31 | 80 | 1022.0 |
| 20260505035313 | 74 | 90 | 3.0 | 5.0 | 0.00 | 0.00 | 0.31 | 80 | 1022.0 |
| 20260505034814 | 74 | 68 | 2.0 | 2.0 | 0.00 | 0.00 | 0.31 | 80 | 1022.0 |
| 20260505034313 | 74 | 68 | 4.0 | 5.0 | 0.00 | 0.00 | 0.31 | 80 | 1022.0 |
| 20260505033813 | 74 | 0 | 5.0 | 6.0 | 0.00 | 0.00 | 0.31 | 81 | 1022.0 |
| 20260505033313 | 74 | 45 | 1.0 | 2.0 | 0.00 | 0.00 | 0.31 | 80 | 1022.0 |
| 20260505032813 | 74 | 90 | 7.0 | 8.0 | 0.00 | 0.00 | 0.31 | 80 | 1022.0 |
| 20260505032314 | 74 | 68 | 4.0 | 5.0 | 0.00 | 0.00 | 0.31 | 80 | 1022.0 |
| 20260505031813 | 74 | 45 | 5.0 | 6.0 | 0.00 | 0.00 | 0.31 | 80 | 1022.0 |
| 20260505031313 | 74 | 113 | 7.0 | 8.0 | 0.00 | 0.00 | 0.31 | 80 | 1022.0 |
| 20260505030813 | 74 | 68 | 4.0 | 5.0 | 0.00 | 0.00 | 0.31 | 80 | 1022.0 |
| 20260505030313 | 74 | 90 | 2.0 | 2.0 | 0.00 | 0.00 | 0.31 | 79 | 1022.0 |
| 20260505025814 | 74 | 68 | 4.0 | 5.0 | 0.00 | 0.00 | 0.31 | 79 | 1022.0 |
| 20260505025313 | 74 | 135 | 2.0 | 3.0 | 0.00 | 0.00 | 0.31 | 79 | 1022.0 |
| 20260505024813 | 74 | 0 | 3.0 | 5.0 | 0.00 | 0.00 | 0.31 | 79 | 1022.0 |
| 20260505024313 | 74 | 113 | 2.0 | 2.0 | 0.00 | 0.00 | 0.31 | 79 | 1022.0 |
| 20260505023814 | 74 | 90 | 4.0 | 6.0 | 0.00 | 0.00 | 0.31 | 79 | 1022.0 |
| 20260505023313 | 74 | 45 | 3.0 | 5.0 | 0.00 | 0.00 | 0.31 | 79 | 1022.0 |
| 20260505022813 | 74 | 23 | 4.0 | 5.0 | 0.00 | 0.00 | 0.31 | 79 | 1022.0 |
| 20260505022313 | 74 | 68 | 5.0 | 6.0 | 0.00 | 0.00 | 0.31 | 79 | 1022.0 |
| 20260505021813 | 74 | 45 | 3.0 | 5.0 | 0.00 | 0.00 | 0.31 | 79 | 1022.0 |
| 20260505021314 | 74 | 45 | 2.0 | 2.0 | 0.00 | 0.00 | 0.31 | 78 | 1022.0 |
| 20260505020814 | 74 | 45 | 5.0 | 6.0 | 0.00 | 0.00 | 0.31 | 78 | 1022.0 |
| 20260505020313 | 74 | 135 | 2.0 | 3.0 | 0.00 | 0.00 | 0.31 | 78 | 1022.0 |
| 20260505015813 | 74 | 45 | 3.0 | 4.0 | 0.00 | 0.00 | 0.31 | 79 | 1022.0 |
| 20260505015313 | 74 | 45 | 3.0 | 5.0 | 0.00 | 0.00 | 0.31 | 79 | 1022.0 |
| 20260505014813 | 75 | 45 | 2.0 | 2.0 | 0.00 | 0.00 | 0.31 | 79 | 1022.0 |
| 20260505014313 | 75 | 68 | 4.0 | 7.0 | 0.00 | 0.00 | 0.31 | 79 | 1022.0 |
| 20260505013813 | 74 | 68 | 2.0 | 3.0 | 0.00 | 0.00 | 0.31 | 78 | 1022.0 |
| 20260505013313 | 74 | 23 | 3.0 | 5.0 | 0.00 | 0.00 | 0.31 | 78 | 1022.0 |
| 20260505012814 | 74 | 113 | 3.0 | 4.0 | 0.00 | 0.00 | 0.31 | 79 | 1022.0 |
| 20260505012313 | 75 | 68 | 4.0 | 5.0 | 0.00 | 0.00 | 0.31 | 78 | 1022.0 |
| 20260505011813 | 75 | 68 | 4.0 | 5.0 | 0.00 | 0.00 | 0.31 | 77 | 1022.0 |
| 20260505011313 | 75 | 45 | 4.0 | 5.0 | 0.00 | 0.00 | 0.31 | 77 | 1022.0 |
| 20260505010813 | 75 | 90 | 3.0 | 4.0 | 0.00 | 0.00 | 0.31 | 77 | 1022.0 |
| 20260505010313 | 75 | 45 | 4.0 | 5.0 | 0.00 | 0.00 | 0.31 | 77 | 1022.0 |
| 20260505005813 | 75 | 68 | 5.0 | 7.0 | 0.00 | 0.00 | 0.31 | 77 | 1022.0 |
| 20260505005313 | 75 | 135 | 5.0 | 6.0 | 0.00 | 0.00 | 0.31 | 78 | 1022.0 |
| 20260505004813 | 75 | 68 | 3.0 | 5.0 | 0.00 | 0.00 | 0.31 | 77 | 1022.0 |
| 20260505004313 | 75 | 0 | 5.0 | 5.0 | 0.00 | 0.00 | 0.31 | 77 | 1021.0 |
| 20260505003813 | 74 | 90 | 3.0 | 5.0 | 0.00 | 0.00 | 0.31 | 77 | 1022.0 |
| 20260505003313 | 74 | 68 | 4.0 | 6.0 | 0.00 | 0.00 | 0.31 | 78 | 1022.0 |
| 20260505002813 | 75 | 68 | 3.0 | 5.0 | 0.00 | 0.00 | 0.31 | 78 | 1021.0 |
| 20260505002314 | 75 | 90 | 2.0 | 2.0 | 0.00 | 0.00 | 0.31 | 78 | 1021.0 |
| 20260505001813 | 74 | 0 | 3.0 | 4.0 | 0.00 | 0.00 | 0.31 | 77 | 1021.0 |
| 20260505001313 | 74 | 45 | 3.0 | 4.0 | 0.00 | 0.00 | 0.31 | 78 | 1021.0 |
| 20260505000813 | 74 | 90 | 5.0 | 7.0 | 0.00 | 0.00 | 0.31 | 78 | 1021.0 |
| 20260505000313 | 74 | 0 | 2.0 | 2.0 | 0.00 | 0.00 | 0.31 | 78 | 1021.0 |
| 20260504235813 | 74 | 23 | 2.0 | 4.0 | 0.00 | 0.00 | 0.31 | 78 | 1021.0 |
| 20260504235315 | 74 | 23 | 2.0 | 3.0 | 0.00 | 0.00 | 0.31 | 78 | 1021.0 |
| 20260504234813 | 74 | 45 | 3.0 | 4.0 | 0.00 | 0.00 | 0.31 | 78 | 1021.0 |
| 20260504234313 | 75 | 90 | 3.0 | 5.0 | 0.00 | 0.00 | 0.31 | 79 | 1021.0 |
| 20260504233813 | 75 | 68 | 3.0 | 5.0 | 0.00 | 0.00 | 0.31 | 78 | 1021.0 |
| 20260504233313 | 75 | 113 | 2.0 | 3.0 | 0.00 | 0.00 | 0.31 | 78 | 1021.0 |
| 20260504232813 | 75 | 68 | 3.0 | 4.0 | 0.00 | 0.00 | 0.31 | 78 | 1021.0 |
| 20260504232313 | 75 | 45 | 2.0 | 3.0 | 0.00 | 0.00 | 0.31 | 77 | 1021.0 |
| 20260504231814 | 75 | 23 | 3.0 | 4.0 | 0.00 | 0.00 | 0.31 | 77 | 1021.0 |
| 20260504231314 | 75 | 45 | 4.0 | 5.0 | 0.00 | 0.00 | 0.31 | 77 | 1021.0 |
| 20260504230813 | 75 | 90 | 3.0 | 4.0 | 0.00 | 0.00 | 0.31 | 77 | 1021.0 |
| 20260504230313 | 75 | 68 | 8.0 | 11.0 | 0.00 | 0.00 | 0.31 | 77 | 1021.0 |
| 20260504225813 | 75 | 68 | 5.0 | 6.0 | 0.00 | 0.00 | 0.31 | 78 | 1021.0 |
| 20260504225313 | 75 | 113 | 5.0 | 7.0 | 0.00 | 0.00 | 0.31 | 78 | 1021.0 |
| 20260504224814 | 75 | 45 | 4.0 | 6.0 | 0.00 | 0.00 | 0.31 | 78 | 1021.0 |
| 20260504224313 | 75 | 135 | 4.0 | 6.0 | 0.00 | 0.00 | 0.31 | 78 | 1021.0 |
| 20260504223813 | 76 | 68 | 6.0 | 7.0 | 0.00 | 0.00 | 0.31 | 78 | 1021.0 |
| 20260504223314 | 76 | 45 | 4.0 | 6.0 | 0.00 | 0.00 | 0.31 | 77 | 1021.0 |
| 20260504222813 | 76 | 113 | 3.0 | 5.0 | 0.00 | 0.00 | 0.31 | 77 | 1021.0 |
| 20260504222313 | 76 | 158 | 5.0 | 7.0 | 0.00 | 0.00 | 0.31 | 77 | 1021.0 |
| 20260504221813 | 76 | 68 | 3.0 | 5.0 | 0.00 | 0.00 | 0.31 | 77 | 1021.0 |
| 20260504221313 | 76 | 90 | 6.0 | 7.0 | 0.00 | 0.00 | 0.31 | 76 | 1021.0 |
| 20260504220815 | 76 | 68 | 7.0 | 9.0 | 0.00 | 0.00 | 0.31 | 76 | 1021.0 |
| 20260504220313 | 76 | 68 | 5.0 | 7.0 | 0.00 | 0.00 | 0.31 | 76 | 1021.0 |
| 20260504215813 | 76 | 68 | 4.0 | 5.0 | 0.00 | 0.00 | 0.31 | 76 | 1021.0 |
| 20260504215313 | 76 | 45 | 5.0 | 5.0 | 0.00 | 0.00 | 0.31 | 76 | 1021.0 |
| 20260504214814 | 76 | 68 | 3.0 | 5.0 | 0.00 | 0.00 | 0.31 | 77 | 1021.0 |
| 20260504214313 | 76 | 113 | 5.0 | 7.0 | 0.00 | 0.00 | 0.31 | 76 | 1021.0 |
| 20260504213816 | 76 | 90 | 4.0 | 5.0 | 0.00 | 0.00 | 0.31 | 76 | 1021.0 |
| 20260504213313 | 76 | 45 | 7.0 | 8.0 | 0.00 | 0.00 | 0.31 | 75 | 1021.0 |
| 20260504212813 | 77 | 113 | 6.0 | 10.0 | 0.00 | 0.00 | 0.31 | 75 | 1021.0 |
| 20260504212313 | 78 | 68 | 5.0 | 6.0 | 0.00 | 0.00 | 0.31 | 74 | 1021.0 |
| 20260504211813 | 77 | 45 | 7.0 | 11.0 | 0.00 | 0.00 | 0.31 | 74 | 1021.0 |
| 20260504211313 | 77 | 45 | 6.0 | 8.0 | 0.00 | 0.00 | 0.31 | 73 | 1021.0 |
| 20260504210813 | 78 | 158 | 4.0 | 5.0 | 0.00 | 0.00 | 0.31 | 72 | 1021.0 |
| 20260504210313 | 78 | 68 | 5.0 | 7.0 | 0.00 | 0.00 | 0.31 | 73 | 1021.0 |
| 20260504205814 | 78 | 68 | 3.0 | 5.0 | 0.00 | 0.00 | 0.31 | 73 | 1021.0 |
| 20260504205314 | 78 | 0 | 5.0 | 6.0 | 0.00 | 0.00 | 0.31 | 73 | 1021.0 |
| 20260504204814 | 77 | 338 | 2.0 | 2.0 | 0.00 | 0.00 | 0.31 | 75 | 1021.0 |
| 20260504204313 | 77 | 90 | 3.0 | 3.0 | 0.00 | 0.00 | 0.31 | 76 | 1021.0 |
| 20260504203813 | 77 | 0 | 4.0 | 5.0 | 0.00 | 0.00 | 0.31 | 76 | 1021.0 |
| 20260504203314 | 77 | 90 | 5.0 | 7.0 | 0.00 | 0.00 | 0.31 | 74 | 1022.0 |
| 20260504202813 | 78 | 90 | 6.0 | 7.0 | 0.00 | 0.00 | 0.31 | 75 | 1021.0 |
| 20260504202314 | 77 | 68 | 6.0 | 10.0 | 0.00 | 0.00 | 0.31 | 76 | 1022.0 |
| 20260504201816 | 77 | 90 | 5.0 | 5.0 | 0.00 | 0.00 | 0.31 | 76 | 1022.0 |
| 20260504201313 | 77 | 68 | 7.0 | 10.0 | 0.00 | 0.00 | 0.31 | 75 | 1021.0 |
| 20260504200813 | 78 | 23 | 8.0 | 10.0 | 0.00 | 0.00 | 0.31 | 74 | 1022.0 |
| 20260504200313 | 78 | 68 | 5.0 | 9.0 | 0.00 | 0.00 | 0.31 | 75 | 1021.0 |
| 20260504195814 | 77 | 90 | 5.0 | 7.0 | 0.00 | 0.00 | 0.31 | 76 | 1021.0 |
| 20260504195313 | 77 | 113 | 5.0 | 6.0 | 0.00 | 0.00 | 0.31 | 77 | 1022.0 |
| 20260504194814 | 77 | 45 | 7.0 | 8.0 | 0.00 | 0.00 | 0.31 | 77 | 1022.0 |
| 20260504194315 | 77 | 23 | 5.0 | 8.0 | 0.07 | 0.00 | 0.31 | 78 | 1022.0 |
| 20260504193813 | 76 | 90 | 9.0 | 13.0 | 0.00 | 0.00 | 0.30 | 79 | 1022.0 |
| 20260504193313 | 75 | 113 | 5.0 | 7.0 | 0.00 | 0.00 | 0.30 | 81 | 1022.0 |
| 20260504192813 | 75 | 135 | 4.0 | 6.0 | 0.00 | 0.00 | 0.30 | 82 | 1022.0 |
| 20260504192313 | 74 | 68 | 5.0 | 7.0 | 0.00 | 0.00 | 0.30 | 84 | 1022.0 |
| 20260504191814 | 74 | 68 | 5.0 | 6.0 | 0.00 | 0.00 | 0.30 | 84 | 1022.0 |
| 20260504191314 | 74 | 90 | 6.0 | 9.0 | 0.00 | 0.00 | 0.30 | 86 | 1022.0 |
| 20260504190814 | 73 | 45 | 7.0 | 8.0 | 0.00 | 0.00 | 0.30 | 87 | 1022.0 |
| 20260504190313 | 73 | 23 | 5.0 | 5.0 | 0.00 | 0.00 | 0.30 | 87 | 1022.0 |
| 20260504185814 | 73 | 68 | 4.0 | 6.0 | 0.00 | 0.00 | 0.30 | 87 | 1022.0 |
| 20260504185313 | 73 | 113 | 7.0 | 9.0 | 0.00 | 0.00 | 0.30 | 87 | 1022.0 |
| 20260504184814 | 72 | 45 | 9.0 | 11.0 | 0.07 | 0.00 | 0.30 | 88 | 1022.0 |
| 20260504184314 | 73 | 90 | 3.0 | 5.0 | 0.07 | 0.00 | 0.30 | 87 | 1022.0 |
| 20260504183814 | 73 | 90 | 4.0 | 5.0 | 0.07 | 0.00 | 0.28 | 85 | 1022.0 |
| 20260504183314 | 74 | 68 | 6.0 | 7.0 | 0.00 | 0.00 | 0.27 | 83 | 1022.0 |
| 20260504182813 | 74 | 23 | 6.0 | 9.0 | 0.00 | 0.00 | 0.27 | 83 | 1022.0 |
| 20260504182315 | 75 | 113 | 4.0 | 5.0 | 0.00 | 0.00 | 0.27 | 82 | 1022.0 |
| 20260504181814 | 75 | 23 | 6.0 | 7.0 | 0.00 | 0.00 | 0.27 | 82 | 1022.0 |
| 20260504181316 | 75 | 45 | 10.0 | 12.0 | 0.00 | 0.00 | 0.27 | 80 | 1023.0 |
| 20260504180813 | 76 | 68 | 5.0 | 6.0 | 0.00 | 0.00 | 0.27 | 81 | 1022.0 |
| 20260504180315 | 75 | 113 | 7.0 | 9.0 | 0.00 | 0.00 | 0.27 | 81 | 1022.0 |
| 20260504175813 | 75 | 113 | 2.0 | 2.0 | 0.00 | 0.00 | 0.27 | 83 | 1023.0 |
| 20260504175314 | 76 | 90 | 5.0 | 7.0 | 0.00 | 0.00 | 0.27 | 82 | 1022.0 |
| 20260504174813 | 76 | 68 | 8.0 | 11.0 | 0.00 | 0.00 | 0.27 | 81 | 1023.0 |
| 20260504174313 | 76 | 23 | 7.0 | 10.0 | 0.00 | 0.00 | 0.27 | 78 | 1022.0 |
| 20260504173813 | 77 | 68 | 7.0 | 7.0 | 0.00 | 0.00 | 0.27 | 78 | 1023.0 |
| 20260504173314 | 77 | 23 | 11.0 | 13.0 | 0.00 | 0.00 | 0.27 | 78 | 1022.0 |
| 20260504172813 | 77 | 45 | 5.0 | 6.0 | 0.00 | 0.00 | 0.27 | 78 | 1023.0 |
| 20260504172314 | 78 | 23 | 5.0 | 7.0 | 0.00 | 0.00 | 0.27 | 76 | 1023.0 |
| 20260504171813 | 78 | 23 | 10.0 | 13.0 | 0.00 | 0.00 | 0.27 | 75 | 1023.0 |
| 20260504171314 | 78 | 45 | 9.0 | 10.0 | 0.00 | 0.00 | 0.27 | 75 | 1023.0 |
| 20260504170813 | 77 | 23 | 10.0 | 13.0 | 0.00 | 0.00 | 0.27 | 76 | 1023.0 |
| 20260504170314 | 77 | 45 | 10.0 | 13.0 | 0.00 | 0.00 | 0.27 | 77 | 1023.0 |
| 20260504160314 | 77 | 68 | 7.0 | 10.0 | 0.00 | 0.00 | 0.27 | 76 | 1023.0 |
| 20260504150814 | 74 | 68 | 7.0 | 10.0 | 0.07 | 0.00 | 0.27 | 85 | 1023.0 |
| 20260504150314 | 74 | 45 | 4.0 | 5.0 | 0.07 | 0.00 | 0.27 | 86 | 1023.0 |
| 20260504141314 | 77 | 23 | 4.0 | 6.0 | 0.00 | 0.00 | 0.26 | 79 | 1022.0 |
| 20260504140815 | 77 | 45 | 5.0 | 7.0 | 0.00 | 0.00 | 0.26 | 78 | 1022.0 |
| 20260504140315 | 77 | 0 | 8.0 | 10.0 | 0.00 | 0.00 | 0.26 | 78 | 1022.0 |